EN

Hourly Weather Alimtau

Today, 22 January, Friday

Time Temperature Precipitation Wind Pressure Humidity
00:00 +3°C° 2.3 mm 4 mps 720 mmHg 85%
01:00 +1°C° 2.3 mm 5 mps 721 mmHg 90%
02:00 0°C° 2.3 mm 5 mps 722 mmHg 95%
03:00 -3°C° 1.2 mm 6 mps 723 mmHg 94%
04:00 -6°C° 1.2 mm 7 mps 725 mmHg 93%
05:00 -8°C° 1.2 mm 8 mps 726 mmHg 91%
06:00 -8°C° 0.8 mm 7 mps 728 mmHg 92%
07:00 -9°C° 0.8 mm 6 mps 731 mmHg 92%
08:00 -8°C° 0.8 mm 5 mps 733 mmHg 93%
09:00 -8°C° 0.6 mm 4 mps 734 mmHg 92%
10:00 -9°C° 0.6 mm 4 mps 735 mmHg 91%
11:00 -8°C° 0.6 mm 3 mps 736 mmHg 90%
12:00 -7°C° 0.1 mm 3 mps 736 mmHg 86%
13:00 -7°C° 0.1 mm 3 mps 736 mmHg 82%
14:00 -7°C° 0.1 mm 3 mps 737 mmHg 78%
15:00 -6°C° 0 mm 2 mps 737 mmHg 79%
16:00 -6°C° 0 mm 2 mps 737 mmHg 79%
17:00 -6°C° 0 mm 2 mps 738 mmHg 80%
18:00 -6°C° 0 mm 2 mps 738 mmHg 81%
19:00 -7°C° 0 mm 2 mps 738 mmHg 82%
20:00 -8°C° 0 mm 2 mps 738 mmHg 82%
21:00 -7°C° 0 mm 2 mps 738 mmHg 85%
22:00 -7°C° 0 mm 2 mps 739 mmHg 87%
23:00 -8°C° 0 mm 3 mps 739 mmHg 89%

Tomorrow, 23 January, Saturday

Time Temperature Precipitation Wind Pressure Humidity
00:00 -8°C° 0.1 mm 3 mps 739 mmHg 90%
01:00 -8°C° 0.1 mm 3 mps 739 mmHg 91%
02:00 -7°C° 0.1 mm 3 mps 739 mmHg 93%
03:00 -8°C° 0 mm 3 mps 739 mmHg 93%
04:00 -7°C° 0 mm 2 mps 738 mmHg 93%
05:00 -7°C° 0 mm 2 mps 738 mmHg 92%
06:00 -8°C° 0 mm 3 mps 739 mmHg 91%
07:00 -8°C° 0 mm 3 mps 739 mmHg 90%
08:00 -9°C° 0 mm 4 mps 739 mmHg 89%
09:00 -8°C° 0 mm 5 mps 739 mmHg 86%
10:00 -8°C° 0 mm 6 mps 739 mmHg 82%
11:00 -6°C° 0 mm 6 mps 739 mmHg 78%
12:00 -6°C° 0 mm 6 mps 739 mmHg 77%
13:00 -5°C° 0 mm 6 mps 739 mmHg 76%
14:00 -5°C° 0 mm 6 mps 738 mmHg 75%
15:00 -5°C° 0 mm 6 mps 738 mmHg 76%
16:00 -5°C° 0 mm 6 mps 738 mmHg 77%
17:00 -5°C° 0 mm 5 mps 738 mmHg 78%
18:00 -5°C° 0.1 mm 5 mps 739 mmHg 79%
19:00 -5°C° 0.1 mm 5 mps 739 mmHg 81%
20:00 -5°C° 0.1 mm 5 mps 740 mmHg 82%
21:00 -5°C° 0.1 mm 4 mps 740 mmHg 83%
22:00 -5°C° 0.1 mm 4 mps 740 mmHg 85%
23:00 -5°C° 0.1 mm 4 mps 739 mmHg 86%

Day after tomorrow, 24 January, Sunday

Time Temperature Precipitation Wind Pressure Humidity
00:00 -5°C° 0 mm 3 mps 739 mmHg 86%
01:00 -5°C° 0 mm 3 mps 739 mmHg 87%
02:00 -4°C° 0 mm 2 mps 739 mmHg 87%
03:00 -4°C° 0 mm 2 mps 739 mmHg 84%
04:00 -3°C° 0 mm 1 mps 739 mmHg 81%
05:00 -3°C° 0 mm 1 mps 739 mmHg 78%
06:00 -3°C° 0 mm 1 mps 739 mmHg 77%
07:00 -3°C° 0 mm 1 mps 739 mmHg 75%
08:00 -4°C° 0 mm 1 mps 739 mmHg 74%
09:00 -2°C° 0 mm 1 mps 739 mmHg 72%
10:00 -1°C° 0 mm 1 mps 739 mmHg 71%
11:00 +1°C° 0 mm 1 mps 739 mmHg 69%
12:00 -1°C° 0 mm 2 mps 738 mmHg 71%
13:00 -1°C° 0 mm 2 mps 738 mmHg 73%
14:00 +1°C° 0 mm 2 mps 737 mmHg 76%
15:00 -1°C° 0 mm 3 mps 737 mmHg 79%
16:00 -2°C° 0 mm 3 mps 737 mmHg 83%
17:00 -4°C° 0 mm 3 mps 737 mmHg 87%
18:00 -4°C° 0 mm 3 mps 737 mmHg 86%
19:00 -5°C° 0 mm 3 mps 737 mmHg 86%
20:00 -5°C° 0 mm 3 mps 737 mmHg 85%
21:00 -6°C° 0 mm 3 mps 737 mmHg 83%
22:00 -5°C° 0 mm 2 mps 736 mmHg 81%
23:00 -5°C° 0 mm 2 mps 736 mmHg 80%

25 January, Monday

Time Temperature Precipitation Wind Pressure Humidity
00:00 -5°C° 0 mm 2 mps 736 mmHg 79%
01:00 -5°C° 0 mm 2 mps 736 mmHg 79%
02:00 -5°C° 0 mm 2 mps 736 mmHg 78%
03:00 -5°C° 0 mm 2 mps 735 mmHg 77%
04:00 -5°C° 0 mm 2 mps 735 mmHg 77%
05:00 -3°C° 0 mm 1 mps 735 mmHg 76%
06:00 -3°C° 0 mm 1 mps 735 mmHg 75%
07:00 -3°C° 0 mm 1 mps 735 mmHg 74%
08:00 -4°C° 0 mm 1 mps 735 mmHg 73%
09:00 -2°C° 0 mm 1 mps 735 mmHg 70%
10:00 -1°C° 0 mm 1 mps 735 mmHg 68%
11:00 0°C° 0 mm 0 mps 735 mmHg 66%
12:00 0°C° 0 mm 0 mps 735 mmHg 66%
13:00 +1°C° 0 mm 0 mps 734 mmHg 67%
14:00 +2°C° 0 mm 1 mps 734 mmHg 68%
15:00 +1°C° 0 mm 1 mps 734 mmHg 72%
16:00 +1°C° 0 mm 1 mps 734 mmHg 76%
17:00 0°C° 0 mm 1 mps 734 mmHg 81%
18:00 -1°C° 0 mm 1 mps 734 mmHg 80%
19:00 -1°C° 0 mm 1 mps 734 mmHg 80%
20:00 -2°C° 0 mm 1 mps 734 mmHg 80%
21:00 -2°C° 0 mm 1 mps 734 mmHg 79%
22:00 -2°C° 0 mm 1 mps 734 mmHg 78%
23:00 -2°C° 0 mm 1 mps 734 mmHg 77%

26 January, Tuesday

Time Temperature Precipitation Wind Pressure Humidity
00:00 -2°C° 0 mm 1 mps 734 mmHg 76%
01:00 -2°C° 0 mm 1 mps 734 mmHg 76%
02:00 -3°C° 0 mm 0 mps 734 mmHg 75%
03:00 -3°C° 0 mm 0 mps 734 mmHg 74%
04:00 -3°C° 0 mm 0 mps 734 mmHg 73%
05:00 -3°C° 0 mm 0 mps 733 mmHg 73%
06:00 -2°C° 0 mm 1 mps 734 mmHg 71%
07:00 -2°C° 0 mm 1 mps 734 mmHg 69%
08:00 -2°C° 0 mm 1 mps 734 mmHg 68%
09:00 -2°C° 0 mm 0 mps 734 mmHg 65%
10:00 0°C° 0 mm 0 mps 734 mmHg 63%
11:00 +1°C° 0 mm 0 mps 734 mmHg 60%
12:00 +3°C° 0 mm 1 mps 734 mmHg 62%
13:00 +3°C° 0 mm 1 mps 733 mmHg 63%
14:00 +4°C° 0 mm 1 mps 733 mmHg 64%
15:00 +3°C° 0 mm 1 mps 733 mmHg 68%
16:00 +1°C° 0 mm 2 mps 733 mmHg 72%
17:00 -1°C° 0 mm 2 mps 733 mmHg 76%
18:00 -1°C° 0 mm 2 mps 733 mmHg 74%
19:00 0°C° 0 mm 1 mps 733 mmHg 73%
20:00 0°C° 0 mm 1 mps 733 mmHg 72%
21:00 0°C° 0 mm 1 mps 733 mmHg 70%
22:00 0°C° 0 mm 1 mps 733 mmHg 68%
23:00 0°C° 0 mm 1 mps 733 mmHg 66%

27 January, Wednesday

Time Temperature Precipitation Wind Pressure Humidity
00:00 0°C° 0 mm 1 mps 733 mmHg 65%
01:00 0°C° 0 mm 1 mps 733 mmHg 63%
02:00 0°C° 0 mm 1 mps 733 mmHg 62%
03:00 0°C° 0 mm 1 mps 733 mmHg 60%
04:00 0°C° 0 mm 1 mps 733 mmHg 59%
05:00 0°C° 0 mm 1 mps 733 mmHg 58%
06:00 0°C° 0 mm 1 mps 733 mmHg 57%
07:00 0°C° 0 mm 1 mps 733 mmHg 57%
08:00 0°C° 0 mm 1 mps 733 mmHg 56%
09:00 +1°C° 0 mm 1 mps 733 mmHg 55%
10:00 +3°C° 0 mm 1 mps 733 mmHg 54%
11:00 +3°C° 0 mm 0 mps 733 mmHg 54%
12:00 +5°C° 0 mm 1 mps 733 mmHg 54%
13:00 +5°C° 0 mm 1 mps 733 mmHg 54%
14:00 +6°C° 0 mm 1 mps 733 mmHg 54%
15:00 +5°C° 0 mm 1 mps 733 mmHg 58%
16:00 +4°C° 0 mm 1 mps 733 mmHg 61%
17:00 +2°C° 0 mm 2 mps 733 mmHg 65%
18:00 +2°C° 0 mm 1 mps 733 mmHg 65%
19:00 +2°C° 0 mm 1 mps 733 mmHg 64%
20:00 +1°C° 0 mm 1 mps 733 mmHg 63%
21:00 +1°C° 0 mm 1 mps 733 mmHg 62%
22:00 +1°C° 0 mm 1 mps 733 mmHg 60%
23:00 +1°C° 0 mm 1 mps 733 mmHg 58%
Show more